Toba Valley Lodge

# Date
Time
Ta 24hr
Ta Max
24hr
Ta Min
RH HS HS
Sig
Qual
Precip
Gauge
Total
Hour
Precip
mm
24hr
Sum
Precip
72hr
Sum
Precip
28day
Sum
Precip
Wind
Speed
kph
Wind
Dir
deg
Vel
3sec
Gust
Dir
3sec
Gust
Time
3sec
Gust
Batt
Volts
Logger
Intrnl
Temp
1. 2021-01-14 14:14 4.2 4.2 1.4 95 ~ ~ 155 0.00 0 ~ 227 0 221 0 ~ ~ ~ ~
2. 2021-01-14 15:14 5.1 5.1 1.4 95 ~ ~ 155 0.00 0 ~ 227 0 221 3 ~ ~ ~ ~
3. 2021-01-14 16:14 4.8 5.1 1.4 94 ~ ~ 155 0.00 0 ~ 227 0 221 3 ~ ~ ~ ~
4. 2021-01-14 17:14 4.1 5.1 1.4 95 ~ ~ 155 0.00 0 ~ 227 0 221 0 ~ ~ ~ ~
5. 2021-01-14 18:14 3.8 5.1 1.4 95 ~ ~ 155 0.00 0 ~ 227 0 221 3 ~ ~ ~ ~
6. 2021-01-14 19:14 3.6 5.1 1.4 96 ~ ~ 155 0.00 0 ~ 227 0 221 2 ~ ~ ~ ~
7. 2021-01-14 20:14 3.3 5.1 1.4 95 ~ ~ 155 0.00 0 ~ 227 0 221 5 ~ ~ ~ ~
8. 2021-01-14 21:14 3.4 5.1 1.4 96 ~ ~ 155 0.00 0 ~ 227 0 221 0 ~ ~ ~ ~
9. 2021-01-14 22:14 3.4 5.1 1.4 95 ~ ~ 155 0.00 0 ~ 227 0 221 0 ~ ~ ~ ~
10. 2021-01-14 23:14 3.3 5.1 1.4 95 ~ ~ 156 1.02 1 ~ 227 0 221 0 ~ ~ ~ ~
11. 2021-01-15 00:14 3.3 5.1 1.4 95 ~ ~ 158 1.78 3 ~ 229 0 221 0 ~ ~ ~ ~
12. 2021-01-15 01:14 3.5 5.1 1.4 95 ~ ~ 161 2.54 5 ~ 231 0 221 0 ~ ~ ~ ~
13. 2021-01-15 02:14 3.3 5.1 1.4 95 ~ ~ 161 0.51 6 ~ 231 0 221 3 ~ ~ ~ ~
14. 2021-01-15 03:14 3.0 5.1 1.4 95 ~ ~ 161 0.00 6 ~ 230 0 221 0 ~ ~ ~ ~
15. 2021-01-15 04:14 2.8 5.1 1.4 95 ~ ~ 161 0.00 6 ~ 230 0 221 2 ~ ~ ~ ~
16. 2021-01-15 05:14 2.4 5.1 1.4 95 ~ ~ 161 0.00 6 ~ 229 0 221 0 ~ ~ ~ ~
17. 2021-01-15 06:14 2.4 5.1 1.4 95 ~ ~ 161 0.00 6 ~ 228 0 221 0 ~ ~ ~ ~
18. 2021-01-15 07:14 2.3 5.1 1.4 95 ~ ~ 161 0.00 6 ~ 227 0 221 0 ~ ~ ~ ~
19. 2021-01-15 08:14 2.3 2.3 2.3 95 ~ ~ 161 0.00 6 ~ 226 0 221 3 ~ ~ ~ ~
20. 2021-01-15 09:14 2.3 2.3 2.3 95 ~ ~ 161 0.00 6 ~ 224 0 221 0 ~ ~ ~ ~
21. 2021-01-15 10:14 2.8 2.8 2.3 95 ~ ~ 161 0.00 6 ~ 223 0 221 0 ~ ~ ~ ~
22. 2021-01-15 11:14 3.7 3.7 2.3 95 ~ ~ 161 0.00 6 ~ 222 0 221 2 ~ ~ ~ ~
23. 2021-01-15 12:14 4.3 4.3 2.3 94 ~ ~ 161 0.00 6 ~ 221 0 221 0 ~ ~ ~ ~
24. 2021-01-15 13:14 4.6 4.6 2.3 94 ~ ~ 161 0.00 6 ~ 220 0 221 3 ~ ~ ~ ~
25. 2021-01-15 14:14 5.1 5.1 2.3 94 ~ ~ 161 0.00 6 ~ 220 0 221 3 ~ ~ ~ ~
26. 2021-01-15 15:14 5.6 5.6 2.3 94 ~ ~ 161 0.00 6 ~ 219 0 221 0 ~ ~ ~ ~
27. 2021-01-15 16:14 5.5 5.6 2.3 94 ~ ~ 161 0.00 6 ~ 216 0 221 0 ~ ~ ~ ~
28. 2021-01-15 17:15 5.0 5.6 2.3 95 ~ ~ 161 0.00 6 ~ 213 0 221 3 ~ ~ ~ ~
29. 2021-01-15 18:15 4.6 5.6 2.3 95 ~ ~ 161 0.00 6 ~ 209 0 221 0 ~ ~ ~ ~
30. 2021-01-15 19:14 4.4 5.6 2.3 95 ~ ~ 161 0.00 6 ~ 205 0 221 2 ~ ~ ~ ~
31. 2021-01-15 20:14 4.3 5.6 2.3 95 ~ ~ 161 0.00 6 ~ 203 0 221 2 ~ ~ ~ ~
32. 2021-01-15 21:14 4.1 5.6 2.3 95 ~ ~ 161 0.00 6 ~ 201 0 221 0 ~ ~ ~ ~
33. 2021-01-15 22:14 4.1 5.6 2.3 95 ~ ~ 161 0.00 6 ~ 201 0 221 0 ~ ~ ~ ~
34. 2021-01-15 23:14 4.1 5.6 2.3 95 ~ ~ 161 0.00 5 ~ 201 0 221 0 ~ ~ ~ ~
35. 2021-01-16 00:14 3.9 5.6 2.3 95 ~ ~ 161 0.00 3 ~ 201 0 221 0 ~ ~ ~ ~
36. 2021-01-16 01:14 3.9 5.6 2.3 95 ~ ~ 161 0.00 1 ~ 201 0 221 0 ~ ~ ~ ~
37. 2021-01-16 02:14 3.9 5.6 2.3 95 ~ ~ 161 0.00 0 ~ 201 0 221 0 ~ ~ ~ ~
38. 2021-01-16 03:14 3.8 5.6 2.3 95 ~ ~ 161 0.00 0 8 201 0 221 2 ~ ~ ~ ~
39. 2021-01-16 04:14 3.6 5.6 2.3 95 ~ ~ 161 0.00 0 6 201 0 221 0 ~ ~ ~ ~
40. 2021-01-16 05:14 3.1 5.6 2.3 95 ~ ~ 161 0.00 0 6 201 0 221 0 ~ ~ ~ ~
41. 2021-01-16 06:14 2.9 5.6 2.3 95 ~ ~ 161 0.00 0 6 201 0 221 0 ~ ~ ~ ~
42. 2021-01-16 07:14 2.9 5.6 2.3 95 ~ ~ 161 0.00 0 6 201 0 221 0 ~ ~ ~ ~
43. 2021-01-16 08:15 2.7 2.9 2.7 95 ~ ~ 161 0.00 0 6 201 0 221 0 ~ ~ ~ ~
44. 2021-01-16 09:14 2.7 2.9 2.7 95 ~ ~ 161 0.00 0 6 201 0 221 3 ~ ~ ~ ~
45. 2021-01-16 10:14 3.3 3.3 2.7 95 ~ ~ 161 0.00 0 6 201 0 221 0 ~ ~ ~ ~
46. 2021-01-16 11:14 4.3 4.3 2.7 94 ~ ~ 161 0.00 0 6 201 0 221 0 ~ ~ ~ ~
47. 2021-01-16 12:14 4.9 4.9 2.7 94 ~ ~ 161 0.00 0 6 201 0 178 2 ~ ~ ~ ~
48. 2021-01-16 13:14 5.6 5.6 2.7 94 ~ ~ 161 0.00 0 6 201 0 180 0 ~ ~ ~ ~
49. 2021-01-16 14:14 5.7 5.7 2.7 95 ~ ~ 161 0.00 0 6 200 0 180 0 ~ ~ ~ ~
50. 2021-01-16 15:14 5.8 5.8 2.7 95 ~ ~ 161 0.00 0 6 198 0 180 0 ~ ~ ~ ~
51. 2021-01-16 16:14 5.8 5.8 2.7 96 ~ ~ 161 0.00 0 6 197 0 180 0 ~ ~ ~ ~
52. 2021-01-16 17:14 5.3 5.8 2.7 96 ~ ~ 161 0.00 0 6 196 0 180 0 ~ ~ ~ ~
53. 2021-01-16 18:14 5.1 5.8 2.7 96 ~ ~ 162 1.02 1 7 194 0 180 0 ~ ~ ~ ~
54. 2021-01-16 19:14 4.7 5.8 2.7 96 ~ ~ 163 0.76 2 8 193 0 180 0 ~ ~ ~ ~
55. 2021-01-16 20:15 4.4 5.8 2.7 95 ~ ~ 163 0.25 2 8 192 0 180 0 ~ ~ ~ ~
56. 2021-01-16 21:14 4.2 5.8 2.7 96 ~ ~ 163 0.25 2 8 191 0 180 0 ~ ~ ~ ~
57. 2021-01-16 22:14 4.0 5.8 2.7 95 ~ ~ 164 0.51 3 9 190 0 180 0 ~ ~ ~ ~
58. 2021-01-16 23:14 3.8 5.8 2.7 95 ~ ~ 164 0.25 3 9 188 0 180 0 ~ ~ ~ ~
59. 2021-01-17 00:14 3.7 5.8 2.7 95 ~ ~ 165 0.76 4 10 185 0 180 0 ~ ~ ~ ~
60. 2021-01-17 01:14 3.5 5.8 2.7 95 ~ ~ 165 0.25 4 10 184 0 180 0 ~ ~ ~ ~
61. 2021-01-17 02:14 3.3 5.8 2.7 95 ~ ~ 165 0.25 4 10 184 0 180 0 ~ ~ ~ ~
62. 2021-01-17 03:14 3.3 5.8 2.7 95 ~ ~ 166 0.76 5 11 185 0 180 0 ~ ~ ~ ~
63. 2021-01-17 04:14 3.2 5.8 2.7 95 ~ ~ 167 0.51 6 11 186 0 180 0 ~ ~ ~ ~
64. 2021-01-17 05:14 3.0 5.8 2.7 95 ~ ~ 167 0.51 6 12 186 0 180 0 ~ ~ ~ ~
65. 2021-01-17 06:14 2.9 5.8 2.7 95 ~ ~ 167 0.25 6 12 186 0 180 0 ~ ~ ~ ~
66. 2021-01-17 07:14 2.8 5.8 2.7 95 ~ ~ 168 0.25 7 12 187 0 180 0 ~ ~ ~ ~
67. 2021-01-17 08:14 2.8 2.8 2.8 95 ~ ~ 168 0.25 7 13 186 0 180 0 ~ ~ ~ ~
68. 2021-01-17 09:14 2.9 2.9 2.8 95 ~ ~ 168 0.00 7 13 185 0 180 0 ~ ~ ~ ~
69. 2021-01-17 10:14 3.2 3.2 2.8 95 ~ ~ 168 0.00 7 13 183 0 180 0 ~ ~ ~ ~
70. 2021-01-17 11:14 3.6 3.6 2.8 95 ~ ~ 168 0.00 7 13 183 0 180 0 ~ ~ ~ ~
71. 2021-01-17 12:14 4.1 4.1 2.8 95 ~ ~ 168 0.00 7 13 183 0 180 0 ~ ~ ~ ~
72. 2021-01-17 13:14 4.7 4.7 2.8 95 ~ ~ 168 0.00 7 13 183 0 180 2 ~ ~ ~ ~

Unit Conversions

  • mm values are converted at 25.4mm x reported in (inches) value
  • kph values are converted at 1.609344 x reported mph value

Columns

Date Time

  • Value is saved to the database from [observation_time_rfc822] API field
  • Value is saved to the database with the minute and second elements set to zero
  • This data is used for all dynamic calculations
  • Note that the data collection is triggered by running a “cron job” on the server.  This is configured to run twice per hour – at 15 mins and 45 mins past the hour. 15 mins past the hour is recommended by the Davis guidelines and is then saved in the database as 00 mins. The second cron job is in place so that if the first cron job fails or didn’t run, then the second cron job at 45 mins after the hour will attempt to collect the data for that hour. The script is configured that at 45 mins past the hour, it checks if there is data from the 15 mins past the hour cron job. If yes, it will not add another data row for that hour in the database. If the first cron job failed, and this second cron job collects data at 45 mins past the hour this will be saved to the database as 00 mins in order to have consistency in time displayed across rows. If for any reason both cron jobs fail, the table will add a row with no data.

Ta – current air temperature

  • Value is saved to the database from [temp_c] API field

24hr Ta Max – Max temperature since reset hour

  • Value is dynamically calculated by comparing temperatures from all rows between the reset hour row and the current row
  • If the current row’s hour value is larger than the reset hour value, the range of temperatures to compare will be from the current day’s reset hour to the current row’s hour
  • If the current row’s hour value is less than or equal to the reset hour value, the range of temperatures to compare will be from yesterday’s reset hour to the current row’s hour

24hr Ta Min – Min temperature since reset hour

  • Value is dynamically calculated by comparing temperatures from all rows between the reset hour row and the current row
  • If the current row’s hour value is larger than the reset hour value, the range of temperatures to compare will be from the current day’s reset hour to the current row’s hour
  • If the current row’s hour value is less than or equal to the reset hour value, the range of temperatures to compare will be from yesterday’s reset hour to the current row’s hour

RH – current relative humidity

  • Value is saved to the database from [relative_humidity] API field

HS – current total snow on the ground

  • This field is currently not available

HS Sig Qual – sensor value

  • This field is currently not available

Precip Gauge Total – cumulative total of mm of precipitation in gauge since reset (done at station)

  • Value is saved to the database from [rain_year_in] API field
  • Before saving to the database, the value is converted from “in” to “mm”

Hour precip mm – mm of precipitation recorded in the past hour

  • Value is dynamically calculated by comparing “Precip Gauge Total” value of the last hour and the current hour
  • If both the last and current hour of “Precip Gauge Total” field are not defined, this field will also show value as not defined
  • If only the last hour of “Precip Gauge Total” field is not defined, the value of this field will be equal to this hour’s “Precip Gauge Total” field
  • If both the last and the current hour of “Precip Gauge Total” field are defined, and the past hour’s value is greater than the current hour’s value – that is recognized as the hour period in which a reset occurred, so the value of this field will be equal to the current row’s “Precip Gauge Total” field
  • If both the last and the current hour of “Precip Gauge Total” field are defined, and the past hour’s value is less than or equal to current hour’s value – the value of this field will be calculated by this formula: ( this_hour_precip – last_hour_precip )
  • As “Precip Gauge Total” value is already converted to “mm” unit, this value is also represented in “mm” units

24h Sum Precip – running total of mm of precipitation for the past 24 hours.

  • Value is dynamically calculated by comparing all rows of “Precip Gauge Total” field for the past 24 hours relative to this row’s hour
  • Comparison of values is done in exactly the same way as above ( Hour precip ) field. With the only difference that comparison is done for the past 24 hours instead of only past hour
  • As “Precip Gauge Total” value is already converted to “mm” unit, this value is also represented in “mm” units

72h Sum Precip – running total of mm of precipitation for the past 72 hours.

  • Value is dynamically calculated by comparing all rows of “Precip Gauge Total” field for the past 72 hours relative to this row’s hour
  • Comparison of values is done in exactly the same way as above ( Hour precip ) field. With the only difference that comparison is done for the past 72 hours instead of only past hour
  • As “Precip Gauge Total” value is already converted to “mm” unit, this value is also represented in “mm” units

28day Sum Precip – running total of mm of precipitation for the past 672 hours.

  • Value is dynamically calculated by comparing all rows of “Precip Gauge Total” field for the past 672 hours relative to this row’s hour
  • Comparison of values is done in exactly the same way as above ( Hour precip ) field. With the only difference that comparison is done for the past 672 hours instead of only past hour
  • As “Precip Gauge Total” value is already converted to “mm” unit, this value is also represented in “mm” units

Wind Speed kph – current 2 min average in kph wind speed as reported by station

  • Value is saved to database from [wind_mph] API field
  • Before saving to database, value is converted from “mph” to “kph” units

Wind Dir Deg – direction of current wind as reported by station

  • Value is saved to database from [wind_degrees] API field

Vel 3sec Gust – speed of highest gust in kph during the past hour as reported by station

  • Value is saved to database from [wind_ten_min_gust_mph] API field
  • Before saving to database, value is converted from “mph” to “kph” units

Dir 3sec Gust – direction of gust

  • This field is currently not available

Time 3sec Gust – time of gust

  • This field is currently not available

Batt Volts – station battery level

  • This field is currently not available

Logger Intrnl Temp – internal temperature of the station

  • This field is currently not available